Regional Weather Roundup
Issued by NWS

Home | Current Version | Previous Version | Text Only | Print | Product List | Glossary On
Versions: 1 2 3 4 5 6 7 8 9 10 11 12 13 14 15 16 17 18 19 20 21 22 23 24 25 26 27 28 29 30 31 32 33 34 35 36 37 38 39 40 41 42 43 44 45 46 47 48 49 50
000
ASUS43 KDTX 290501
RWRMI
MICHIGAN HOURLY REGIONAL WEATHER ROUNDUP
NATIONAL WEATHER SERVICE DETROIT/PONTIAC MI
1200 AM EST THU JAN 29 2015

NOTE: "FAIR" INDICATES FEW OR NO CLOUDS BELOW 12,000 FEET WITH NO
SIGNIFICANT WEATHER AND/OR OBSTRUCTION TO VISIBILITY.

MIZ047>049-052>055-059>063-066>070-074>076-081>083-290600-
SOUTHEAST LOWER MICHIGAN

CITY           SKY/WX    TMP DP  RH WIND       PRES   REMARKS
ADRIAN         CLOUDY    24  16  71 S8        30.10F WCI  15
ALMA           CLOUDY    26  15  65 SE7       30.03F WCI  18
ANN ARBOR      CLOUDY    24  14  65 S10       30.11S WCI  14
BAD AXE        CLOUDY    23  16  73 S14G21    30.10F WCI  11
CARO           CLOUDY    26  10  51 S10       30.07F WCI  15
DETROIT CITY   CLOUDY    26  14  60 S10       30.14F WCI  16
DETROIT        CLOUDY    25  14  63 SE10      30.14F WCI  15
FLINT          CLOUDY    27  13  55 S15G23    30.07F WCI  15
GROSSE ILE     CLOUDY    25  16  68 SE12G17   30.13F WCI  14
HILLSDALE      CLOUDY    25  16  68 SE7G21    30.03F WCI  17
HOWELL         CLOUDY    25  15  65 S15G21    30.06R WCI  12

CITY           SKY/WX    TMP DP  RH WIND       PRES   REMARKS
JACKSON        CLOUDY    25  16  68 S16       30.03F WCI  12
LAMBERTVILLE   CLOUDY    27  14  59 SE6       30.12S WCI  20
LANSING        CLOUDY    25  15  66 S16G23    30.03F WCI  12
LAPEER         FAIR      25  12  59 S8        30.09F WCI  16
MASON          CLOUDY    24  16  70 S12G18    30.03F WCI  13
MONROE         CLOUDY    25  16  68 SE10      30.11F WCI  15
MT. CLEMENS    CLOUDY    23  17  78 SE10      30.12F WCI  12
PONTIAC        CLOUDY    24  13  62 SE9       30.08F WCI  14
PORT HOPE        N/A     24  11  57 S10G21    30.09F WCI  14
PORT HURON     CLOUDY    23  16  74 S7        30.15F WCI  15
TRI CITIES     CLOUDY    28   9  44 S14       30.06F WCI  17
TROY           CLOUDY    26  13  57 SE7       30.13F WCI  19
SAGINAW HB     CLOUDY    28  10  47 S12       30.07R WCI  18
$$
MIZ043>046-050>051-056>058-064>065-071>073-077>080-290600-
SOUTHWEST LOWER MICHIGAN

CITY           SKY/WX    TMP DP  RH WIND       PRES   REMARKS
BATTLE CREEK   CLOUDY    28  16  60 S12G22    29.99F WCI  18
BENTON HARBOR  MOCLDY    29  19  66 SE9G21    29.93F WCI  20
BIG RAPIDS     CLOUDY    27  11  51 S10       29.95F WCI  17
COLDWATER      CLOUDY    27  18  69 SE12G17   30.00F WCI  16
FREMONT        FAIR      28   9  46 S10       29.95F WCI  18
HOLLAND        CLOUDY    29  17  61 SE13      29.96F WCI  19
GRAND RAPIDS   CLOUDY    27  15  61 SE13      29.98F WCI  16
IONIA          MOCLDY    27  18  69 S15       30.00F WCI  15
KALAMAZOO      CLOUDY    28  16  60 S12       29.99F WCI  18
LUDINGTON      CLOUDY    31   9  40 S12       29.92F WCI  21
MARSHALL       CLOUDY    26  17  67 SE9G16    30.00F WCI  17
MOUNT PLEASANT CLOUDY    26  13  57 SE9       30.01F WCI  17
MUSKEGON       CLOUDY    28  16  60 SE15      29.95F WCI  16
SOUTH HAVEN    CLOUDY    31  18  59 SE12G20   29.94F WCI  22
$$
MIZ016>042-290600-
NORTHERN LOWER MICHIGAN

CITY           SKY/WX    TMP DP  RH WIND       PRES   REMARKS
ALPENA         CLOUDY    26  13  57 SE9       30.06F WCI  17
BEAVER ISLAND  CLOUDY    28  16  58 SE6       29.94F WCI  22
BELLAIRE       CLOUDY    30   9  41 SE5       29.96F WCI  25
CADILLAC       CLOUDY    25  10  53 SE13      29.92F WCI  14
CHARLEVOIX     CLOUDY    28  12  50 SE6       29.97F WCI  22
FRANKFORT      CLOUDY    30  13  49 SE10      29.91F WCI  21
GAYLORD        CLOUDY    24   9  52 S8        29.95F WCI  15
GRAYLING       CLOUDY    26  10  50 SE9       29.98F WCI  16
HARBOR SPRINGS CLOUDY    28  12  51 E7        29.96F WCI  21
HOUGHTON LAKE  CLOUDY    25   9  50 SE10G18   29.98F WCI  15
MANISTEE       CLOUDY    30   9  40 SE9       29.92F WCI  22
OSCODA         CLOUDY    26  14  62 S12G17    30.07F WCI  15
PELLSTON       CLOUDY    28  13  53 SE12      29.98F WCI  18
ROGERS CITY    CLOUDY    27  16  63 S10       30.03F WCI  17
TRAVERSE CITY  CLOUDY    30  10  43 VRB6      29.93F WCI  24
$$
MIZ007>008-015-290600-
EASTERN UPPER MICHIGAN

CITY           SKY/WX    TMP DP  RH WIND       PRES   REMARKS
KINROSS        CLOUDY    27  19  74 SE16      29.98F WCI  14
MACKINAC ISLAN CLOUDY    29  12  50 SE12      29.97F WCI  19
NEWBERRY       CLOUDY    26  14  62 SE12      29.94F WCI  15
S. S. MARIE    CLOUDY    25  17  72 E10       29.99F WCI  15
MUNISING         N/A     31  20  63 S8        29.89F WCI  23
$$
MIZ004>006-011>014-085-290600-
CENTRAL UPPER MICHIGAN

CITY           SKY/WX    TMP DP  RH WIND       PRES   REMARKS
MANISTIQUE     CLOUDY    30  21  69 SE12      29.91F WCI  20
ESCANABA       CLOUDY    30  21  69 S8        29.90F WCI  23
MENOMINEE      CLOUDY    30  23  74 S9        29.86F WCI  22
SAWYER-GWINN   CLOUDY    28  22  77 S10       29.84F WCI  19
$$
MIZ001>003-009>011-084-290600-
WESTERN UPPER MICHIGAN

CITY           SKY/WX    TMP DP  RH WIND       PRES   REMARKS
IRON MOUNTAIN  CLOUDY    28  23  81 SE9       29.82F WCI  19
HOUGHTON       CLOUDY    29  21  72 S7        29.80F WCI  22
COPPER HARBOR    N/A     32  24  72 SW7       29.83F WCI  26
IRONWOOD       CLOUDY    28  23  80 CALM      29.78S
$$

ABBREVIATIONS USED IN REMARKS
   TC - TEMPERATURE IN CELSIUS
  WCI - WIND CHILL INDEX
   HX - HEAT INDEX
  VSB - VISIBILITY



USA.gov is the U.S. government's official web portal to all federal, state and local government web resources and services.